Flag for U.S.A. Weather past 2 weeks in Clearwater, Florida, U.S.A.

Now
86 °F

Sunny.


Feels Like: 93 °F
Forecast: 79 / 90 °F
Wind: 6 mph from North

Location: St. Petersburg / Clearwater International Airport

Current Time: Jul 3, 2015 at 8:31:44 PM

Latest Report: Jul 3, 2015 at 7:53 PM


Visibility: 10 mi

Pressure: 30.06 "Hg

Humidity: 65%

Dew point: 73 °F

Location of ClearwaterLocation

Historic Weather in Clearwater — Graph

°F

Clearwater temperature yesterday

Maximum temperature yesterday: 88 °F (at 10:53 AM)
Minimum temperature yesterday: 78 °F (at 3:53 AM)
Average temperature yesterday: 82 °F

Past Weeks' High & Low Weather Summary

 TemperatureHumidityPressure
High94 °F (Jun 21, 2:53 PM)96% (Jun 28, 9:04 AM)30.16 "Hg (Jun 28, 9:04 AM)
Low74 °F (Jun 23, 8:53 PM)50% (Jun 27, 1:53 PM)29.98 "Hg (Jun 28, 3:53 AM)
Average84 °F74%30.09 "Hg
* Reported Jun 18 6:53 PM — Jul 3 6:53 PM, Clearwater, Weather by CustomWeather, © 2015

Note: Actual official high and low records may vary slightly from our data, if they occured in-between our weather recording intervals... More about our weather records

Advertising

Clearwater weather history for previous 24 hours

 ConditionsComfort  
Time TempWeatherWind HumidityBarometerVisibility
6:53 PM
Fri, Jul 3
87 °FSunny.5 mph65%30.06 "Hg10 mi
5:53 PM88 °FThundershowers. Sunny.8 mph67%30.04 "Hg10 mi
4:53 PM90 °FSunny.8 mph63%30.04 "Hg10 mi
3:53 PM91 °FSunny.7 mph57%30.06 "Hg10 mi
2:53 PM81 °FPassing clouds.6 mph74%30.07 "Hg10 mi
1:53 PM83 °FThunderstorms. Partly sunny.20 mph68%30.10 "Hg10 mi
12:53 PM90 °FPassing clouds.10 mph63%30.09 "Hg10 mi
11:53 AM88 °FSunny.7 mph65%30.09 "Hg10 mi
10:53 AM88 °FSunny.7 mph70%30.09 "Hg10 mi
9:53 AM85 °FSunny.3 mph75%30.10 "Hg10 mi
8:53 AM83 °FSunny.6 mph77%30.10 "Hg10 mi
7:53 AM80 °FSunny.3 mph85%30.09 "Hg10 mi
6:53 AM76 °FClear.No wind91%30.08 "Hg10 mi
5:53 AM76 °FClear.No wind91%30.07 "Hg10 mi
4:53 AM76 °FClear.No wind91%30.06 "Hg10 mi
3:53 AM77 °FClear.3 mph88%30.06 "Hg10 mi
2:53 AM77 °FClear.No wind88%30.06 "Hg10 mi
1:53 AM78 °FClear.No wind84%30.09 "Hg10 mi
12:53 AM80 °FClear.6 mph79%30.09 "Hg10 mi
11:53 PM
Thu, Jul 2
81 °FClear.8 mph82%30.11 "Hg10 mi
10:53 PM82 °FClear.3 mph74%30.10 "Hg10 mi
9:53 PM84 °FClear.8 mph70%30.08 "Hg10 mi
8:53 PM84 °FSunny.5 mph70%30.09 "Hg10 mi
Weather by CustomWeather, © 2015

See weather overviewHow to use our weather pages